Location: Kuffner-Sternwarte
(48.2130°N, 16.2960°E)
Time: 06:52:53
(UTC+02:00)

YUBILEINY - Visible Passes

Search period start: 19 June 2019 00:00
Search period end: 29 June 2019 00:00
Orbit: 1477 x 1509 km, 82.5° (Epoch: 18 June)

Date Brightness Start Highest point End Pass type
(mag) Time Alt. Az. Time Alt. Az. Time Alt. Az.
19 Jun ? 01:45:15 10° N 01:51:01 19° NE 01:56:46 10° E visible
19 Jun ? 03:40:57 10° N 03:49:41 72° ENE 03:58:21 10° SSE visible
20 Jun ? 00:57:52 10° NNE 00:59:57 11° NE 01:02:02 10° NE visible
20 Jun ? 02:51:31 10° N 02:59:45 44° ENE 03:07:56 10° SE visible
21 Jun ? 02:02:20 10° N 02:09:27 27° ENE 02:16:30 10° ESE visible
21 Jun ? 03:58:38 10° NNW 04:07:21 82° W 04:16:03 10° S visible
22 Jun ? 01:13:41 10° NNE 01:18:43 16° NE 01:23:42 10° E visible
22 Jun ? 03:09:02 10° N 03:17:41 62° ENE 03:26:17 10° SSE visible
23 Jun ? 02:19:41 10° N 02:27:40 38° ENE 02:35:35 10° SE visible
24 Jun ? 01:30:37 10° N 01:37:14 23° ENE 01:43:48 10° ESE visible
24 Jun ? 03:26:41 10° N 03:35:26 87° E 03:44:10 10° S visible
25 Jun ? 00:42:16 10° NNE 00:46:22 14° NE 00:50:26 10° ENE visible
25 Jun ? 02:37:09 10° N 02:45:40 54° ENE 02:54:08 10° SSE visible
26 Jun ? 01:47:52 10° N 01:55:31 33° ENE 02:03:08 10° SE visible
26 Jun ? 03:44:25 10° NNW 03:53:02 67° W 04:01:37 10° S visible
27 Jun ? 00:58:57 10° N 01:04:59 20° NE 01:10:58 10° E visible
27 Jun ? 02:54:45 10° N 03:03:30 76° ENE 03:12:12 10° SSE visible
28 Jun ? 00:11:09 10° NNE 00:13:58 12° NE 00:16:47 10° ENE visible
28 Jun ? 02:05:17 10° N 02:13:37 46° ENE 02:21:54 10° SE visible
28 Jun ? 04:02:19 10° NNW 04:10:27 47° W 04:18:35 10° SSW visible
